• In Hungary
  • List of Countries
  • For 7 days
  • Water Temperature
  • Satellite Maps
  • Weather Map
  • News
  • Weather Widgets
  • user-avatar
    Login

    Hourly Weather Konispol

    Today, 15 October, Monday

    Time Temperature Precipitation Wind Pressure Humidity
    00:00 +16°C° 0 mm 3 mps 736 mmHg 72%
    01:00 +16°C° 0 mm 3 mps 736 mmHg 72%
    02:00 +14°C° 0 mm 3 mps 736 mmHg 73%
    03:00 +14°C° 0 mm 3 mps 736 mmHg 74%
    04:00 +14°C° 0 mm 3 mps 736 mmHg 75%
    05:00 +14°C° 0 mm 3 mps 736 mmHg 74%
    06:00 +16°C° 0 mm 3 mps 736 mmHg 74%
    07:00 +17°C° 0 mm 3 mps 736 mmHg 71%
    08:00 +19°C° 0 mm 3 mps 736 mmHg 65%
    09:00 +21°C° 0 mm 2 mps 736 mmHg 58%
    10:00 +23°C° 0 mm 2 mps 736 mmHg 51%
    11:00 +24°C° 0 mm 2 mps 736 mmHg 49%
    12:00 +25°C° 0 mm 2 mps 736 mmHg 47%
    13:00 +25°C° 0 mm 2 mps 736 mmHg 45%
    14:00 +24°C° 0 mm 2 mps 736 mmHg 48%
    15:00 +23°C° 0 mm 2 mps 736 mmHg 52%
    16:00 +23°C° 0 mm 1 mps 736 mmHg 56%
    17:00 +21°C° 0 mm 1 mps 736 mmHg 60%
    18:00 +20°C° 0 mm 1 mps 736 mmHg 65%
    19:00 +19°C° 0 mm 1 mps 736 mmHg 69%
    20:00 +19°C° 0 mm 1 mps 737 mmHg 70%
    21:00 +18°C° 0 mm 1 mps 737 mmHg 70%
    22:00 +17°C° 0 mm 2 mps 737 mmHg 71%
    23:00 +16°C° 0 mm 2 mps 737 mmHg 71%

    Tomorrow, 16 October, Tuesday

    Time Temperature Precipitation Wind Pressure Humidity
    00:00 +16°C° 0 mm 2 mps 737 mmHg 70%
    01:00 +15°C° 0 mm 2 mps 737 mmHg 70%
    02:00 +15°C° 0 mm 2 mps 737 mmHg 70%
    03:00 +15°C° 0 mm 2 mps 736 mmHg 71%
    04:00 +15°C° 0 mm 2 mps 736 mmHg 71%
    05:00 +14°C° 0 mm 3 mps 736 mmHg 71%
    06:00 +16°C° 0 mm 3 mps 737 mmHg 70%
    07:00 +16°C° 0 mm 3 mps 737 mmHg 69%
    08:00 +18°C° 0 mm 2 mps 737 mmHg 62%
    09:00 +21°C° 0 mm 2 mps 737 mmHg 55%
    10:00 +24°C° 0 mm 1 mps 737 mmHg 48%
    11:00 +25°C° 0 mm 1 mps 737 mmHg 46%
    12:00 +25°C° 0 mm 1 mps 737 mmHg 43%
    13:00 +26°C° 0 mm 2 mps 737 mmHg 41%
    14:00 +25°C° 0 mm 1 mps 737 mmHg 44%
    15:00 +25°C° 0 mm 1 mps 736 mmHg 47%
    16:00 +24°C° 0 mm 1 mps 736 mmHg 50%
    17:00 +22°C° 0 mm 1 mps 736 mmHg 56%
    18:00 +21°C° 0 mm 1 mps 736 mmHg 61%
    19:00 +19°C° 0 mm 1 mps 736 mmHg 66%
    20:00 +19°C° 0 mm 1 mps 736 mmHg 66%
    21:00 +19°C° 0 mm 1 mps 737 mmHg 67%
    22:00 +18°C° 0 mm 1 mps 737 mmHg 67%
    23:00 +18°C° 0 mm 1 mps 736 mmHg 67%

    Day after tomorrow, 17 October, Wednesday

    Time Temperature Precipitation Wind Pressure Humidity
    00:00 +18°C° 0 mm 1 mps 736 mmHg 67%
    01:00 +18°C° 0 mm 1 mps 736 mmHg 67%
    02:00 +16°C° 0 mm 1 mps 736 mmHg 67%
    03:00 +16°C° 0 mm 2 mps 735 mmHg 67%
    04:00 +16°C° 0 mm 2 mps 735 mmHg 68%
    05:00 +16°C° 0 mm 2 mps 735 mmHg 67%
    06:00 +17°C° 0 mm 2 mps 735 mmHg 66%
    07:00 +17°C° 0 mm 2 mps 735 mmHg 64%
    08:00 +20°C° 0 mm 1 mps 735 mmHg 57%
    09:00 +23°C° 0 mm 1 mps 735 mmHg 49%
    10:00 +25°C° 0 mm 1 mps 735 mmHg 41%
    11:00 +26°C° 0 mm 1 mps 735 mmHg 40%
    12:00 +26°C° 0 mm 1 mps 735 mmHg 38%
    13:00 +27°C° 0 mm 1 mps 734 mmHg 37%
    14:00 +26°C° 0 mm 1 mps 734 mmHg 41%
    15:00 +25°C° 0 mm 1 mps 734 mmHg 45%
    16:00 +24°C° 0 mm 1 mps 733 mmHg 49%
    17:00 +23°C° 0 mm 1 mps 734 mmHg 54%
    18:00 +21°C° 0 mm 1 mps 734 mmHg 58%
    19:00 +20°C° 0 mm 1 mps 734 mmHg 63%
    20:00 +19°C° 0 mm 1 mps 734 mmHg 63%
    21:00 +19°C° 0 mm 1 mps 734 mmHg 63%
    22:00 +19°C° 0 mm 1 mps 734 mmHg 63%
    23:00 +18°C° 0 mm 1 mps 734 mmHg 62%

    18 October, Thursday

    Time Temperature Precipitation Wind Pressure Humidity
    00:00 +17°C° 0 mm 2 mps 734 mmHg 62%
    01:00 +17°C° 0 mm 2 mps 734 mmHg 62%
    02:00 +16°C° 0 mm 2 mps 734 mmHg 61%
    03:00 +16°C° 0 mm 2 mps 733 mmHg 61%
    04:00 +16°C° 0 mm 2 mps 733 mmHg 61%
    05:00 +16°C° 0 mm 2 mps 733 mmHg 60%
    06:00 +16°C° 0 mm 2 mps 733 mmHg 60%
    07:00 +17°C° 0 mm 2 mps 733 mmHg 59%
    08:00 +19°C° 0 mm 2 mps 733 mmHg 52%
    09:00 +23°C° 0 mm 2 mps 734 mmHg 46%
    10:00 +25°C° 0 mm 1 mps 734 mmHg 39%
    11:00 +26°C° 0 mm 1 mps 733 mmHg 37%
    12:00 +26°C° 0 mm 1 mps 733 mmHg 35%
    13:00 +27°C° 0 mm 1 mps 733 mmHg 33%
    14:00 +26°C° 0 mm 1 mps 733 mmHg 37%
    15:00 +25°C° 0 mm 1 mps 733 mmHg 41%
    16:00 +25°C° 0 mm 1 mps 733 mmHg 44%
    17:00 +23°C° 0 mm 1 mps 733 mmHg 49%
    18:00 +21°C° 0 mm 2 mps 733 mmHg 53%
    19:00 +19°C° 0 mm 2 mps 733 mmHg 57%
    20:00 +20°C° 0 mm 1 mps 733 mmHg 58%
    21:00 +19°C° 0 mm 1 mps 734 mmHg 59%
    22:00 +19°C° 0 mm 1 mps 734 mmHg 60%
    23:00 +19°C° 0 mm 1 mps 734 mmHg 60%

    19 October, Friday

    Time Temperature Precipitation Wind Pressure Humidity
    00:00 +17°C° 0 mm 2 mps 734 mmHg 61%
    01:00 +17°C° 0 mm 2 mps 734 mmHg 62%
    02:00 +17°C° 0 mm 2 mps 733 mmHg 62%
    03:00 +17°C° 0 mm 2 mps 733 mmHg 62%
    04:00 +17°C° 0 mm 3 mps 733 mmHg 62%
    05:00 +17°C° 0 mm 2 mps 733 mmHg 61%
    06:00 +17°C° 0 mm 2 mps 733 mmHg 60%
    07:00 +17°C° 0 mm 2 mps 733 mmHg 60%
    08:00 +20°C° 0 mm 2 mps 734 mmHg 53%
    09:00 +23°C° 0 mm 1 mps 734 mmHg 46%
    10:00 +26°C° 0 mm 1 mps 734 mmHg 39%
    11:00 +26°C° 0 mm 1 mps 734 mmHg 37%
    12:00 +27°C° 0 mm 2 mps 733 mmHg 35%
    13:00 +28°C° 0 mm 3 mps 733 mmHg 33%
    14:00 +27°C° 0 mm 3 mps 733 mmHg 37%
    15:00 +26°C° 0 mm 3 mps 733 mmHg 41%
    16:00 +25°C° 0 mm 3 mps 733 mmHg 45%
    17:00 +24°C° 0 mm 3 mps 733 mmHg 48%
    18:00 +23°C° 0 mm 2 mps 733 mmHg 50%
    19:00 +20°C° 0 mm 2 mps 734 mmHg 53%
    20:00 +20°C° 0 mm 2 mps 734 mmHg 54%
    21:00 +20°C° 0 mm 2 mps 734 mmHg 55%
    22:00 +19°C° 0 mm 2 mps 734 mmHg 56%
    23:00 +19°C° 0 mm 2 mps 734 mmHg 57%

    20 October, Saturday

    Time Temperature Precipitation Wind Pressure Humidity
    00:00 +18°C° 0 mm 2 mps 734 mmHg 59%
    01:00 +18°C° 0 mm 2 mps 734 mmHg 60%
    02:00 +18°C° 0 mm 2 mps 734 mmHg 60%
    03:00 +18°C° 0 mm 2 mps 734 mmHg 60%
    04:00 +18°C° 0 mm 2 mps 734 mmHg 60%
    05:00 +18°C° 0 mm 2 mps 734 mmHg 60%
    06:00 +18°C° 0 mm 2 mps 734 mmHg 59%
    07:00 +18°C° 0 mm 2 mps 734 mmHg 59%
    08:00 +22°C° 0 mm 1 mps 735 mmHg 52%
    09:00 +24°C° 0 mm 1 mps 735 mmHg 45%
    10:00 +27°C° 0 mm 1 mps 735 mmHg 39%
    11:00 +27°C° 0 mm 1 mps 735 mmHg 37%
    12:00 +28°C° 0 mm 2 mps 734 mmHg 36%
    13:00 +28°C° 0 mm 3 mps 734 mmHg 34%
    14:00 +27°C° 0 mm 3 mps 734 mmHg 38%
    15:00 +27°C° 0 mm 3 mps 734 mmHg 41%
    16:00 +26°C° 0 mm 3 mps 734 mmHg 44%
    17:00 +24°C° 0 mm 3 mps 734 mmHg 48%
    18:00 +22°C° 0 mm 3 mps 734 mmHg 51%
    19:00 +20°C° 0 mm 2 mps 734 mmHg 55%
    20:00 +20°C° 0 mm 2 mps 734 mmHg 55%
    21:00 +19°C° 0 mm 2 mps 734 mmHg 56%
    22:00 +19°C° 0 mm 2 mps 735 mmHg 57%
    23:00 +19°C° 0 mm 2 mps 734 mmHg 58%
    Show more